Location: Flotzheim
(48.8375°N, 10.8136°E)
Time: 04:51:13
(UTC+00:00)

Cosmos 2278 Rocket - Pass Details

Date: 23 January 2021
Orbit: 840 x 847 km, 71.0° (Epoch: 26 February)

Event Time Altitude Azimuth Distance (km) Brightness Sun altitude
Rises 19:17:55 0° 213° (SSW) 3,390 5.6 -32.2°
Reaches altitude 10° 19:20:22 10° 216° (SW) 2,460 4.9 -32.6°
Enters shadow 19:23:42 37° 226° (SW) 1,300 3.3 -33.2°
